Temp
-8 -7 -6 -6 -5 -5 -4 -4 -5 -5 -5 -5 -5 -5 -4 -5 -4 -4 -4 -4 -4 -4 -3 -3 -3 -3 -2 -2 -1 -0 -0 0 1 1 1 3 3 2 1 2 3 3 4 5 4 4 5 5 5 4 4 3 2 1
-8 -7 -7 -6 -6 -5 -5 -4 -4 -5 -5 -5 -5 -5 -5 -5 -4 -4 -4 -4 -4 -4 -4 -3 -4 -3 -3 -2 -1 -1 0 0 1 1 1 2 3 3 3 0 1 3 3 4 4 5 5 5 4 3 3 2 1 1
-8 -7 -7 -6 -6 -5 -5 -5 -5 -5 -5 -5 -5 -5 -5 -5 -4 -4 -4 -4 -4 -4 -4 -3 -2 -3 -2 -2 -1 -0 0 -0 1 1 0 0 2 3 2 1 2 2 3 3 4 4 4 3 3 2 1 1 1 0
-8 -8 -7 -7 -6 -6 -5 -5 -5 -5 -5 -5 -5 -5 -5 -5 -4 -4 -4 -4 -5 -4 -4 -3 -2 -2 -2 -2 -2 -1 -0 -0 0 1 1 -0 -1 0 3 3 3 3 3 4 4 4 3 3 2 2 1 0 -0 -0
-8 -8 -7 -7 -6 -6 -5 -5 -5 -5 -5 -5 -5 -5 -5 -5 -5 -5 -5 -5 -5 -5 -5 -4 -3 -3 -2 -2 -2 -1 -0 -0 0 -0 0 1 -0 1 2 2 3 3 4 3 3 3 3 2 1 1 -0 -0 -1 -2
-8 -8 -7 -7 -6 -6 -5 -5 -4 -5 -5 -5 -5 -5 -6 -6 -6 -6 -6 -5 -5 -6 -5 -4 -3 -3 -2 -3 -2 -1 -1 -0 -1 -1 -1 -0 -1 1 1 2 2 3 3 2 2 2 1 1 0 -0 -1 -1 -2 -2
-8 -8 -7 -7 -6 -6 -5 -5 -5 -5 -5 -6 -6 -6 -6 -6 -6 -6 -6 -5 -5 -5 -5 -5 -4 -2 -2 -1 -1 -1 -1 -1 -1 -1 -1 -1 -1 -1 0 2 2 2 2 2 1 1 1 0 -1 -1 -1 -2 -3 -3
-8 -8 -7 -7 -6 -5 -5 -5 -5 -5 -6 -6 -7 -7 -7 -7 -7 -6 -7 -6 -6 -6 -5 -5 -5 -3 -3 -3 -3 -2 -1 -2 -2 -2 -1 -1 -2 -2 -1 1 1 1 1 0 0 -0 -0 -1 -1 -2 -3 -3 -3 -3
-8 -7 -7 -6 -6 -5 -5 -5 -5 -6 -6 -7 -7 -8 -8 -8 -7 -7 -7 -7 -7 -6 -6 -5 -5 -4 -4 -3 -3 -3 -3 -2 -2 -3 -2 -2 -3 -2 -1 -0 -1 -1 -1 -1 -1 -1 -2 -4 -4 -4 -4 -3 -3 -3
-8 -7 -7 -7 -6 -8 -6 -6 -6 -7 -7 -8 -9 -9 -8 -8 -7 -7 -7 -7 -7 -5 -6 -6 -5 -4 -3 -3 -3 -3 -3 -3 -3 -3 -2 -1 -1 -1 -0 -0 -0 -1 -1 -2 -2 -3 -4 -5 -5 -4 -4 -3 -4 -4
-8 -7 -9 -7 -8 -8 -7 -7 -7 -7 -8 -8 -9 -9 -9 -9 -8 -8 -7 -7 -6 -6 -6 -5 -5 -4 -3 -4 -4 -3 -3 -3 -3 -3 -2 -1 -1 -1 -0 0 -1 -1 -1 -3 -4 -4 -5 -6 -4 -4 -4 -4 -4 -4
-8 -8 -9 -8 -8 -9 -8 -8 -8 -8 -8 -8 -8 -9 -8 -8 -8 -7 -7 -7 -6 -6 -5 -4 -4 -4 -4 -3 -4 -3 -3 -4 -3 -3 -3 -2 -1 -1 -0 -0 -1 -2 -3 -4 -4 -5 -6 -4 -4 -4 -4 -4 -5 -5
-8 -8 -8 -8 -8 -8 -8 -8 -8 -8 -8 -9 -7 -8 -8 -7 -7 -7 -7 -6 -6 -5 -5 -4 -4 -4 -4 -4 -4 -4 -3 -3 -4 -3 -2 -1 -0 0 -1 -2 -2 -4 -4 -4 -4 -4 -4 -4 -4 -5 -5 -5 -6 -6
-9 -8 -8 -8 -8 -7 -8 -8 -8 -8 -8 -7 -8 -7 -7 -7 -7 -5 -5 -5 -4 -4 -4 -4 -4 -4 -5 -5 -4 -4 -4 -4 -4 -4 -2 -1 -1 -1 -2 -4 -5 -5 -4 -4 -4 -4 -4 -5 -5 -5 -6 -6 -7 -7
-9 -9 -8 -8 -8 -8 -8 -8 -8 -8 -8 -8 -8 -7 -7 -6 -6 -5 -5 -4 -4 -4 -3 -3 -4 -4 -4 -4 -4 -4 -4 -4 -4 -3 -2 -1 -1 -1 -3 -5 -5 -5 -5 -5 -5 -5 -5 -5 -6 -6 -6 -7 -7 -7
-9 -9 -8 -8 -8 -8 -9 -9 -8 -9 -9 -8 -8 -7 -6 -6 -5 -5 -4 -4 -4 -4 -4 -4 -5 -4 -4 -3 -4 -3 -4 -3 -2 -2 -2 -2 -2 -4 -5 -6 -5 -5 -5 -5 -5 -6 -6 -6 -7 -7 -7 -7 -7 -7
-9 -8 -8 -8 -8 -8 -8 -9 -9 -9 -8 -8 -7 -6 -5 -4 -4 -3 -4 -5 -5 -5 -6 -6 -5 -4 -4 -3 -4 -4 -4 -3 -2 -2 -3 -4 -5 -6 -6 -5 -5 -5 -6 -6 -6 -7 -7 -7 -7 -7 -7 -8 -8 -8
-8 -7 -7 -7 -8 -8 -8 -8 -8 -8 -8 -8 -7 -6 -5 -4 -4 -4 -5 -5 -5 -6 -6 -5 -4 -4 -3 -3 -4 -3 -3 -4 -4 -5 -5 -5 -6 -6 -6 -6 -6 -6 -7 -7 -7 -7 -7 -8 -8 -8 -8 -8 -8 -8
-9 -9 -9 -8 -8 -8 -8 -8 -7 -8 -8 -8 -6 -5 -6 -6 -6 -6 -5 -5 -6 -6 -6 -5 -5 -4 -4 -5 -5 -5 -6 -6 -6 -5 -5 -6 -7 -7 -6 -6 -7 -7 -7 -8 -8 -8 -8 -8 -8 -9 -9 -9 -9 -9
-9 -9 -9 -9 -8 -8 -8 -8 -8 -8 -8 -8 -8 -8 -8 -7 -7 -7 -6 -6 -7 -7 -6 -5 -5 -5 -5 -5 -6 -6 -5 -5 -5 -5 -6 -6 -6 -7 -7 -7 -7 -8 -8 -9 -9 -9 -9 -9 -9 -9 -10 -10 -10 -9
-9 -9 -9 -9 -8 -8 -8 -8 -8 -8 -9 -8 -8 -8 -8 -8 -8 -7 -7 -7 -6 -6 -6 -6 -5 -5 -6 -6 -6 -6 -6 -7 -7 -7 -7 -7 -7 -7 -8 -8 -8 -9 -9 -10 -10 -10 -10 -10 -11 -11 -11 -11 -10 -10
-9 -9 -8 -8 -8 -8 -9 -9 -8 -8 -8 -8 -8 -8 -8 -8 -8 -7 -7 -8 -7 -6 -6 -6 -6 -6 -6 -6 -7 -7 -6 -7 -7 -7 -7 -8 -8 -7 -8 -8 -9 -9 -10 -10 -11 -11 -11 -11 -12 -12 -12 -12 -12 -11
-9 -8 -8 -8 -8 -9 -10 -9 -8 -8 -9 -9 -9 -9 -9 -9 -9 -9 -9 -8 -8 -8 -8 -7 -7 -7 -7 -7 -7 -8 -8 -8 -8 -8 -8 -8 -8 -8 -8 -9 -9 -10 -10 -10 -11 -11 -11 -11 -12 -12 -13 -13 -13 -12
-10 -9 -9 -8 -9 -10 -9 -9 -9 -9 -10 -9 -9 -10 -9 -9 -8 -7 -8 -8 -8 -8 -8 -8 -8 -7 -8 -8 -8 -8 -8 -8 -8 -8 -8 -8 -8 -8 -8 -9 -9 -10 -10 -11 -11 -11 -12 -12 -13 -13 -14 -14 -14 -13
-8 -9 -9 -9 -9 -9 -9 -9 -9 -9 -10 -9 -8 -8 -8 -8 -7 -9 -10 -9 -8 -8 -8 -8 -8 -8 -8 -8 -8 -7 -7 -7 -7 -8 -8 -8 -8 -9 -9 -10 -10 -10 -11 -11 -11 -12 -12 -13 -13 -13 -14 -14 -14 -14
-7 -7 -7 -9 -9 -9 -9 -9 -9 -9 -8 -8 -8 -8 -8 -7 -7 -8 -7 -7 -7 -8 -8 -8 -8 -8 -8 -7 -8 -8 -8 -8 -8 -8 -9 -9 -9 -9 -10 -10 -11 -11 -11 -12 -12 -12 -12 -13 -13 -13 -13 -13 -13 -14
-7 -7 -7 -7 -7 -7 -8 -8 -7 -8 -8 -7 -7 -7 -7 -6 -6 -6 -7 -8 -8 -8 -8 -8 -8 -7 -8 -8 -8 -8 -9 -9 -9 -9 -9 -10 -10 -10 -10 -10 -11 -11 -11 -12 -12 -13 -13 -13 -13 -13 -13 -13 -13 -13
-7 -7 -7 -7 -7 -6 -6 -7 -8 -8 -8 -7 -7 -7 -6 -6 -5 -6 -7 -8 -8 -8 -8 -8 -8 -8 -8 -9 -9 -9 -9 -9 -9 -10 -10 -10 -10 -10 -10 -10 -11 -11 -12 -13 -13 -13 -13 -13 -13 -13 -13 -13 -13 -13
-8 -9 -9 -9 -8 -8 -8 -8 -8 -7 -7 -7 -6 -6 -5 -5 -6 -6 -7 -7 -8 -8 -8 -8 -8 -9 -9 -9 -9 -10 -10 -10 -10 -10 -10 -10 -10 -10 -11 -11 -11 -12 -12 -13 -14 -14 -14 -14 -14 -14 -14 -13 -14 -14
-9 -9 -9 -9 -8 -9 -8 -7 -7 -7 -7 -7 -6 -6 -5 -6 -7 -8 -9 -9 -9 -9 -9 -9 -9 -10 -10 -10 -10 -10 -10 -10 -10 -10 -10 -10 -11 -11 -11 -11 -12 -12 -13 -13 -14 -14 -15 -15 -15 -15 -15 -14 -14 -14
-9 -10 -10 -9 -9 -9 -8 -8 -8 -8 -7 -7 -7 -7 -6 -7 -8 -9 -9 -9 -9 -9 -9 -10 -10 -10 -10 -10 -10 -10 -10 -10 -10 -10 -10 -10 -10 -11 -11 -11 -12 -12 -13 -14 -14 -15 -15 -16 -16 -16 -15 -15 -15 -15
-10 -10 -9 -8 -8 -8 -8 -8 -8 -8 -8 -9 -9 -10 -9 -8 -8 -8 -9 -9 -9 -10 -10 -10 -11 -11 -11 -10 -10 -11 -11 -11 -11 -11 -11 -11 -11 -11 -11 -12 -12 -13 -14 -14 -15 -16 -16 -16 -16 -16 -16 -16 -16 -16
-10 -10 -9 -9 -9 -9 -10 -9 -10 -10 -10 -10 -9 -9 -10 -10 -9 -10 -10 -10 -10 -10 -11 -11 -11 -11 -11 -11 -11 -11 -11 -11 -11 -11 -11 -11 -11 -11 -12 -12 -13 -13 -14 -15 -16 -16 -17 -17 -17 -17 -17 -17 -18 -18
Height
2914 2921 2929 2937 2945 2954 2962 2971 2979 2988 2996 3002 3007 3013 3019 3024 3029 3035 3041 3045 3050 3052 3054 3059 3064 3067 3071 3074 3078 3082 3086 3088 3093 3096 3098 3097 3095 3098 3103 3100 3099 3103 3100 3101 3106 3107 3105 3105 3108 3111 3112 3111 3112 3111
2908 2915 2923 2931 2939 2947 2956 2964 2973 2982 2990 2998 3004 3009 3015 3020 3026 3031 3037 3042 3045 3049 3051 3054 3059 3062 3066 3070 3074 3076 3080 3085 3090 3092 3092 3095 3091 3091 3090 3099 3100 3105 3102 3102 3106 3101 3101 3102 3104 3106 3107 3108 3108 3107
2902 2909 2917 2925 2933 2941 2950 2959 2967 2976 2984 2992 3000 3006 3011 3016 3022 3028 3033 3038 3041 3044 3049 3051 3058 3059 3062 3065 3069 3074 3078 3081 3085 3088 3091 3088 3087 3088 3086 3094 3097 3098 3097 3100 3098 3099 3099 3099 3100 3103 3104 3104 3103 3102
2897 2903 2911 2919 2927 2935 2944 2953 2962 2970 2978 2987 2995 3002 3008 3013 3019 3024 3029 3034 3037 3040 3043 3046 3049 3054 3056 3060 3063 3068 3073 3077 3080 3083 3083 3083 3086 3087 3088 3088 3088 3093 3093 3094 3092 3096 3097 3096 3097 3098 3099 3100 3100 3099
2891 2898 2905 2913 2921 2929 2938 2947 2957 2965 2972 2981 2990 2998 3005 3011 3017 3021 3025 3029 3032 3040 3038 3041 3044 3049 3049 3053 3057 3061 3067 3072 3075 3078 3077 3077 3082 3085 3084 3085 3086 3085 3086 3088 3089 3090 3091 3092 3092 3093 3094 3094 3093 3094
2884 2892 2899 2907 2915 2924 2932 2941 2951 2960 2967 2976 2986 2994 3002 3008 3013 3018 3021 3025 3029 3035 3037 3038 3040 3041 3045 3048 3053 3056 3062 3066 3070 3072 3072 3073 3075 3081 3080 3080 3081 3082 3082 3083 3084 3086 3087 3087 3089 3090 3092 3090 3089 3089
2879 2886 2893 2902 2910 2918 2927 2936 2945 2955 2963 2972 2982 2992 2999 3005 3010 3014 3019 3024 3030 3032 3035 3037 3036 3036 3039 3043 3048 3052 3056 3060 3064 3066 3068 3071 3073 3073 3075 3076 3077 3078 3079 3080 3082 3082 3083 3085 3086 3086 3086 3085 3085 3085
2874 2881 2889 2897 2905 2913 2922 2931 2940 2950 2959 2969 2980 2990 2997 3003 3008 3012 3016 3023 3027 3031 3034 3035 3032 3033 3035 3038 3044 3048 3052 3056 3058 3059 3063 3064 3069 3069 3073 3074 3075 3076 3077 3077 3077 3077 3078 3077 3078 3080 3081 3080 3081 3079
2869 2876 2885 2893 2901 2909 2917 2926 2935 2945 2956 2967 2978 2987 2994 2998 3002 3007 3017 3022 3025 3030 3028 3027 3029 3032 3033 3036 3040 3046 3049 3052 3054 3057 3060 3065 3062 3065 3068 3069 3070 3070 3070 3071 3072 3072 3072 3072 3072 3072 3074 3074 3075 3075
2864 2872 2881 2890 2897 2908 2914 2922 2932 2943 2953 2965 2976 2983 2987 2992 2999 3009 3015 3019 3022 3021 3021 3022 3026 3030 3034 3034 3036 3043 3044 3048 3051 3054 3057 3057 3057 3060 3062 3063 3063 3064 3063 3063 3064 3065 3065 3067 3067 3068 3068 3069 3070 3071
2861 2869 2879 2889 2897 2904 2911 2919 2929 2940 2950 2958 2967 2976 2983 2992 3000 3007 3010 3010 3014 3013 3011 3014 3022 3027 3031 3033 3035 3037 3038 3043 3046 3048 3052 3049 3050 3054 3057 3059 3059 3058 3058 3058 3061 3060 3062 3064 3064 3064 3064 3064 3066 3066
2858 2867 2877 2887 2895 2904 2912 2920 2929 2936 2944 2952 2964 2973 2981 2990 2996 2999 2998 3003 3004 3005 3003 3009 3019 3026 3028 3031 3029 3033 3037 3038 3039 3042 3044 3039 3043 3049 3052 3053 3053 3053 3053 3055 3056 3057 3059 3060 3061 3061 3061 3062 3062 3062
2856 2867 2877 2886 2896 2905 2912 2921 2930 2938 2946 2958 2967 2974 2979 2983 2983 2986 2987 2990 2993 2993 2996 3005 3013 3020 3024 3028 3030 3033 3034 3036 3037 3037 3034 3035 3040 3043 3046 3047 3047 3047 3049 3051 3052 3055 3056 3056 3057 3059 3058 3058 3058 3058
2856 2866 2877 2886 2897 2906 2914 2922 2931 2939 2950 2957 2964 2968 2972 2974 2976 2977 2982 2985 2989 2996 3001 3005 3011 3016 3020 3024 3027 3029 3030 3032 3031 3029 3027 3032 3035 3037 3038 3040 3042 3044 3047 3049 3051 3052 3052 3053 3054 3055 3055 3055 3055 3056
2854 2864 2875 2887 2897 2907 2915 2925 2934 2943 2950 2955 2961 2963 2964 2968 2971 2975 2978 2982 2988 2995 3001 3004 3010 3014 3018 3022 3022 3022 3023 3023 3021 3020 3024 3028 3031 3033 3035 3038 3041 3043 3045 3047 3048 3048 3049 3050 3052 3053 3053 3054 3054 3055
2855 2863 2874 2887 2899 2909 2918 2928 2936 2943 2949 2955 2958 2958 2962 2967 2970 2974 2976 2981 2983 2989 2993 2999 3004 3009 3011 3013 3014 3015 3015 3014 3015 3018 3021 3024 3026 3029 3033 3037 3040 3042 3043 3045 3046 3047 3048 3050 3051 3052 3052 3052 3053 3053
2856 2863 2876 2889 2901 2911 2919 2927 2937 2946 2950 2953 2953 2959 2960 2963 2967 2969 2973 2977 2980 2985 2988 2993 2997 3000 3003 3006 3007 3007 3009 3012 3014 3016 3019 3022 3026 3030 3034 3037 3038 3040 3042 3044 3046 3047 3048 3049 3050 3051 3051 3051 3051 3051
2864 2872 2881 2892 2901 2910 2922 2932 2937 2941 2943 2946 2953 2956 2960 2961 2963 2966 2967 2971 2977 2981 2986 2990 2993 2994 2997 2998 3000 3004 3007 3009 3012 3016 3019 3022 3026 3030 3032 3035 3037 3039 3041 3043 3045 3047 3048 3048 3049 3049 3049 3049 3049 3049
2873 2881 2891 2899 2907 2916 2925 2932 2935 2936 2941 2944 2949 2954 2955 2958 2961 2964 2966 2971 2976 2981 2985 2986 2989 2990 2992 2995 2999 3002 3005 3008 3011 3015 3019 3023 3026 3030 3032 3034 3037 3039 3042 3044 3045 3045 3046 3046 3046 3046 3046 3046 3046 3046
2885 2891 2899 2905 2914 2920 2926 2931 2935 2938 2942 2944 2947 2951 2954 2957 2961 2964 2968 2972 2976 2980 2982 2985 2986 2989 2993 2996 2999 3004 3008 3011 3015 3018 3021 3024 3027 3030 3033 3035 3037 3039 3040 3041 3042 3042 3042 3043 3043 3043 3043 3042 3043 3043
2894 2899 2905 2909 2914 2920 2925 2929 2935 2940 2943 2945 2949 2952 2956 2960 2962 2967 2971 2975 2978 2980 2983 2987 2990 2992 2995 2999 3004 3009 3012 3016 3019 3023 3025 3026 3028 3030 3032 3033 3035 3036 3037 3038 3038 3038 3039 3039 3039 3038 3038 3038 3038 3038
2899 2903 2908 2914 2919 2923 2928 2932 2937 2942 2946 2948 2952 2956 2959 2962 2965 2968 2973 2976 2980 2986 2988 2992 2995 2997 3000 3003 3006 3011 3014 3016 3019 3021 3023 3025 3027 3029 3030 3032 3033 3034 3035 3035 3034 3033 3033 3034 3034 3034 3034 3034 3034 3034
2904 2908 2912 2916 2920 2926 2930 2933 2938 2941 2946 2950 2954 2957 2961 2964 2967 2973 2977 2982 2985 2989 2992 2995 2997 3001 3004 3006 3009 3011 3013 3016 3018 3020 3022 3024 3027 3028 3029 3030 3030 3029 3030 3030 3030 3029 3029 3029 3028 3028 3028 3028 3029 3030
2910 2913 2916 2919 2921 2924 2930 2933 2937 2942 2946 2951 2956 2960 2964 2968 2971 2974 2978 2983 2987 2990 2995 2998 3001 3002 3005 3007 3009 3011 3014 3016 3018 3020 3022 3023 3024 3027 3027 3026 3027 3027 3028 3028 3027 3027 3026 3025 3025 3024 3023 3022 3024 3026
2919 2919 2920 2920 2923 2928 2932 2936 2940 2944 2949 2954 2958 2962 2966 2969 2973 2977 2981 2984 2988 2991 2995 2998 3001 3003 3006 3008 3010 3012 3015 3017 3018 3019 3021 3023 3023 3023 3024 3025 3025 3025 3025 3025 3025 3024 3024 3023 3023 3022 3021 3021 3020 3022
2917 2918 2920 2921 2925 2930 2933 2939 2944 2949 2954 2958 2961 2965 2968 2972 2975 2979 2982 2986 2989 2992 2996 2998 3001 3004 3007 3009 3010 3012 3014 3015 3017 3018 3018 3019 3021 3022 3022 3023 3023 3023 3024 3023 3023 3023 3022 3021 3020 3020 3019 3019 3019 3019
2916 2918 2920 2923 2927 2932 2937 2942 2947 2952 2956 2959 2962 2967 2970 2972 2975 2978 2982 2986 2990 2992 2995 2999 3002 3004 3006 3008 3009 3011 3012 3014 3015 3016 3017 3018 3018 3019 3020 3021 3022 3022 3021 3021 3021 3021 3020 3019 3019 3018 3018 3018 3017 3017
2916 2919 2922 2926 2930 2935 2939 2944 2949 2954 2957 2960 2964 2966 2969 2971 2973 2977 2981 2985 2989 2992 2995 2997 3000 3002 3004 3006 3008 3009 3011 3012 3013 3014 3015 3016 3017 3017 3018 3018 3018 3018 3018 3018 3018 3018 3018 3017 3016 3016 3016 3015 3015 3014
2917 2919 2925 2927 2932 2937 2942 2944 2948 2952 2957 2960 2964 2966 2968 2970 2973 2977 2981 2985 2988 2992 2995 2997 3000 3002 3003 3005 3006 3007 3008 3009 3011 3012 3013 3013 3014 3015 3015 3014 3014 3014 3014 3014 3014 3015 3015 3014 3014 3014 3013 3013 3012 3011
2920 2924 2928 2932 2934 2938 2943 2947 2951 2954 2957 2961 2965 2967 2970 2972 2975 2979 2983 2986 2989 2991 2994 2996 2998 3000 3002 3003 3004 3005 3006 3007 3008 3009 3009 3010 3010 3011 3010 3010 3010 3010 3010 3010 3010 3011 3011 3011 3011 3011 3011 3010 3009 3009
2924 2929 2933 2935 2937 2942 2945 2948 2952 2957 2961 2965 2967 2970 2971 2973 2976 2979 2982 2985 2988 2991 2993 2995 2997 2998 3000 3001 3002 3003 3004 3005 3005 3006 3006 3006 3006 3006 3006 3006 3006 3006 3006 3006 3006 3007 3007 3007 3007 3007 3007 3007 3006 3006
2930 2933 2936 2938 2942 2945 2949 2952 2955 2958 2961 2965 2967 2971 2974 2976 2978 2981 2983 2986 2988 2990 2992 2994 2995 2996 2998 2999 3000 3001 3001 3002 3002 3002 3002 3002 3002 3002 3002 3002 3002 3002 3002 3002 3003 3003 3003 3004 3004 3004 3003 3003 3002 3002
2935 2938 2941 2943 2945 2948 2952 2955 2957 2960 2964 2966 2969 2971 2973 2976 2978 2981 2983 2985 2987 2989 2990 2992 2993 2995 2996 2997 2997 2998 2998 2998 2998 2998 2998 2998 2998 2998 2998 2998 2998 2998 2998 2998 2999 2999 2999 2999 2999 2998 2998 2997 2996 2996
Wind_Speed
35 37 38 38 38 38 38 38 40 38 36 34 31 31 32 32 30 29 27 28 31 30 27 31 26 25 21 24 22 23 18 22 23 23 25 16 17 19 24 12 6 10 11 15 10 9 7 10 9 8 5 7 11 9
33 35 38 39 39 38 38 38 39 40 38 35 33 30 30 32 32 30 29 27 29 37 28 27 21 15 25 25 25 25 26 23 22 19 28 20 20 19 22 17 19 19 12 6 12 7 6 5 6 7 11 10 9 10
32 33 36 38 38 38 38 37 38 39 39 37 34 32 30 29 29 30 28 29 30 33 34 37 29 21 19 22 26 27 26 25 26 32 30 18 9 22 17 27 13 16 18 25 18 13 10 7 8 10 9 9 9 11
31 32 34 37 38 39 38 37 37 38 40 39 36 34 31 27 25 25 25 26 29 29 33 30 24 39 38 30 31 29 27 26 29 29 30 34 11 12 17 13 17 20 19 18 15 13 12 10 9 9 11 10 12 13
29 32 35 36 37 39 38 37 37 37 39 39 38 35 31 27 24 23 23 23 22 23 13 16 27 27 26 36 32 35 31 31 29 30 33 33 29 20 19 21 17 20 20 16 13 10 10 9 11 13 11 12 14 14
32 33 33 35 36 37 38 37 36 37 39 39 40 37 31 28 27 25 26 26 21 18 23 25 17 13 26 27 33 37 35 32 30 30 26 36 22 18 18 25 25 21 16 15 13 13 14 13 13 12 13 14 15 16
32 33 33 35 36 37 37 36 36 37 39 39 40 36 32 30 28 29 24 26 21 20 23 20 25 27 20 32 29 28 30 28 33 33 32 28 30 23 19 18 17 14 12 11 12 15 17 18 14 15 16 16 17 19
32 33 34 35 35 35 36 36 36 38 40 39 39 37 33 29 28 27 26 20 20 22 22 14 14 16 19 28 28 28 28 33 34 29 35 25 19 20 15 13 9 9 12 17 20 18 20 21 17 14 15 18 21 18
33 33 34 35 35 36 36 38 39 40 41 41 40 37 32 30 30 30 23 20 13 20 25 23 22 15 20 31 32 28 30 29 24 25 24 21 21 16 15 12 8 14 20 21 23 24 21 18 18 18 19 17 16 17
33 34 35 32 35 30 35 38 41 42 44 44 41 38 37 37 31 26 23 24 22 31 29 36 28 24 21 37 35 32 25 21 16 25 24 26 25 26 21 17 17 19 21 21 21 17 17 14 12 13 15 17 17 15
34 35 38 31 35 30 36 40 43 46 48 49 48 42 36 32 31 29 20 21 19 26 32 41 27 25 24 35 20 19 16 16 11 17 25 24 35 31 24 23 18 24 30 22 19 15 13 15 16 16 15 12 11 11
36 38 45 40 39 36 35 40 46 51 53 52 44 43 29 34 17 17 15 18 17 27 21 28 30 25 24 29 17 21 18 10 6 16 18 22 27 27 25 25 27 24 19 19 17 14 16 17 14 11 10 11 11 9
37 43 43 42 38 40 36 42 48 50 51 46 36 33 29 18 14 17 16 24 34 20 32 31 34 32 32 28 13 11 11 11 10 10 10 24 26 21 25 27 21 16 18 16 14 15 14 11 10 11 10 9 7 7
40 47 45 43 45 47 45 50 49 51 50 38 38 21 25 12 13 15 38 30 28 28 16 28 37 37 26 23 11 9 10 9 11 12 21 21 16 17 20 21 15 16 14 12 11 10 10 10 10 9 8 7 6 6
39 46 52 45 46 47 43 44 42 45 48 31 26 13 19 17 21 28 18 30 26 26 20 28 36 29 29 14 11 9 11 10 11 13 14 15 17 17 19 18 16 12 9 8 8 8 7 7 6 6 6 6 6 7
34 37 47 48 47 47 45 40 43 43 43 19 20 15 20 24 14 14 22 23 24 28 34 41 29 26 18 13 12 16 11 9 11 13 14 17 21 22 20 16 12 8 6 6 6 6 6 6 6 6 5 6 7 7
44 44 51 50 53 51 49 45 40 40 27 26 15 32 17 21 26 29 27 24 32 43 48 37 18 17 13 20 16 10 11 14 12 12 16 19 19 18 15 12 9 7 7 7 7 6 5 5 6 6 7 7 8 8
44 46 49 50 56 55 50 47 39 20 16 24 27 25 24 27 30 24 29 32 44 48 41 32 26 21 17 16 20 25 17 16 16 14 16 22 22 18 14 11 9 9 8 6 7 7 8 8 8 8 8 9 9 9
39 41 41 44 48 45 43 40 22 13 23 22 25 28 28 26 26 26 34 40 48 38 36 31 15 23 20 18 17 23 20 16 18 21 22 21 18 14 12 11 10 10 10 11 10 10 9 9 10 11 11 11 11 11
41 42 44 45 38 45 29 23 24 20 27 28 27 28 30 32 32 38 42 44 32 30 24 14 10 14 13 15 13 13 16 19 19 19 19 17 15 12 12 11 11 10 9 10 10 10 11 12 13 14 14 13 12 12
40 36 42 49 33 26 20 25 19 29 32 31 31 32 30 27 31 32 31 25 20 13 15 16 16 20 24 26 24 22 21 19 16 11 10 12 12 11 9 7 8 9 9 11 12 13 13 13 13 13 14 14 14 13
34 35 38 42 34 20 23 27 28 34 25 31 29 27 26 27 27 26 22 21 22 22 24 23 24 25 26 25 23 20 17 17 15 14 13 11 8 6 6 7 7 10 11 12 13 15 16 17 17 17 17 15 14 14
21 26 27 36 29 13 31 35 33 32 24 29 29 26 25 25 24 23 22 23 27 26 24 23 23 21 19 21 20 18 17 15 14 12 10 8 7 7 6 7 6 5 5 7 8 11 13 12 12 13 18 20 15 14
14 22 24 13 7 16 37 33 32 29 30 29 27 28 25 25 23 21 30 30 27 26 23 21 19 18 17 16 15 14 12 11 10 10 10 9 8 9 7 3 3 3 4 5 6 7 8 8 8 10 10 11 18 14
11 8 6 7 24 27 29 28 29 30 29 28 29 26 24 21 20 28 31 29 27 25 21 19 18 17 12 10 10 10 10 10 9 8 8 9 8 5 4 3 2 2 3 4 5 6 6 6 7 9 9 8 8 12
5 5 7 18 22 28 24 29 26 32 31 28 21 21 20 19 13 14 26 25 23 21 18 16 13 12 11 10 10 9 9 8 8 8 6 5 5 5 4 3 3 4 4 4 4 5 6 6 3 4 6 7 7 8
3 5 12 18 30 30 30 26 30 31 29 16 21 24 19 8 8 19 25 22 19 18 17 16 14 12 10 9 9 9 8 7 6 6 5 6 6 6 6 6 6 5 5 4 4 5 6 6 5 6 7 7 6 7
8 12 17 21 30 30 32 28 30 28 19 18 26 19 14 10 13 25 25 23 20 18 15 13 12 10 9 8 8 7 6 6 6 6 6 7 8 8 9 9 9 9 8 8 6 6 7 7 7 7 7 7 8 10
20 21 22 24 26 27 28 30 25 21 20 23 24 18 12 9 20 25 22 19 17 15 12 11 10 9 8 8 7 6 7 7 8 9 9 9 10 11 10 11 11 11 11 11 11 10 10 9 8 7 7 7 8 9
26 26 25 26 28 28 26 25 19 17 22 22 18 14 15 20 25 23 21 19 17 15 13 10 9 8 8 7 7 8 9 10 11 11 12 12 12 12 14 13 12 12 12 12 11 11 11 11 10 10 10 10 9 9
27 26 24 25 26 23 21 18 19 21 20 18 16 12 14 19 21 22 21 19 17 14 11 9 8 8 8 9 9 9 10 11 12 13 14 12 12 13 15 15 13 13 12 11 11 11 10 10 11 11 12 12 11 11
25 23 21 22 23 23 22 21 20 20 20 18 18 17 15 15 15 15 16 15 13 11 10 10 10 9 9 9 10 11 10 11 11 11 12 12 12 13 13 13 13 12 12 11 11 11 11 11 12 13 13 14 14 14
20 19 20 22 23 22 21 20 19 18 17 17 16 16 16 15 14 14 13 11 10 9 9 9 9 9 9 9 9 9 9 10 10 10 11 11 11 11 11 10 10 10 11 12 13 14 14 15 15 15 16 16 17 17
Wind_Direction
217 214 209 207 206 207 207 207 206 206 207 207 205 206 208 212 216 219 222 222 226 227 240 238 239 246 250 248 248 243 256 236 234 218 229 235 227 226 249 258 250 240 199 201 221 222 238 225 234 226 256 282 299 303
216 213 210 208 206 206 208 207 206 205 206 208 206 205 208 214 218 221 223 224 227 227 235 236 228 225 242 238 237 240 241 235 233 225 223 247 227 222 242 256 253 258 228 266 231 222 195 289 238 278 279 289 308 321
216 214 211 209 206 205 207 208 205 203 204 206 208 208 208 213 218 222 224 225 230 235 241 244 231 234 237 237 237 239 243 234 240 237 239 247 230 228 213 213 226 214 232 232 220 237 260 282 276 276 273 285 291 296
217 215 212 208 206 205 206 208 206 202 203 205 207 209 209 213 215 218 221 226 231 238 243 246 246 242 248 256 238 241 237 240 233 229 231 234 236 219 224 227 221 229 223 228 243 256 265 277 289 286 273 265 277 290
216 213 211 208 204 204 204 206 206 201 201 203 205 207 207 207 208 210 216 222 229 226 239 251 247 237 243 238 245 244 236 233 238 238 237 235 236 236 263 275 256 236 227 233 240 245 251 271 282 273 258 262 279 281
214 212 208 206 203 203 203 203 204 201 200 200 201 203 202 204 207 208 218 219 220 216 248 247 249 253 237 230 234 238 234 231 232 234 235 241 236 238 245 257 245 233 234 233 244 259 277 280 274 265 255 276 276 282
211 208 204 203 201 201 202 201 200 200 199 197 197 196 199 203 208 213 219 222 223 221 233 252 259 259 259 231 231 229 229 219 226 228 236 240 245 225 230 238 235 221 227 240 258 278 285 285 269 266 269 270 281 291
206 203 200 200 198 198 199 197 194 195 193 192 191 192 196 202 209 215 222 229 221 221 227 237 247 256 246 217 208 219 213 214 222 230 239 238 228 219 226 223 233 254 258 273 279 263 264 262 253 255 269 284 287 287
199 196 195 197 197 194 192 191 190 189 187 185 184 186 190 201 206 211 214 220 230 219 223 239 235 248 226 205 199 199 198 199 209 211 205 201 206 222 229 249 256 288 303 293 270 263 254 245 245 250 274 276 277 283
195 194 193 193 189 185 192 187 184 181 180 178 179 182 193 201 204 204 206 214 221 226 239 236 240 233 227 202 189 190 192 202 206 216 216 215 220 226 239 264 277 285 295 279 277 263 262 274 279 272 268 277 280 277
192 191 174 172 171 189 181 176 174 175 175 177 179 187 193 193 201 203 204 206 212 228 232 234 233 226 226 203 207 188 191 194 199 207 210 228 235 238 249 267 269 286 281 268 267 255 253 267 274 276 274 272 270 275
187 182 174 176 180 173 171 172 170 174 177 182 176 182 182 191 198 205 200 202 220 228 229 227 223 211 214 210 211 222 222 202 211 204 210 232 240 244 258 269 260 255 255 257 256 253 269 272 269 263 264 266 274 280
179 174 174 176 168 164 169 169 174 180 177 172 174 172 185 189 186 196 191 203 215 218 218 216 200 201 204 193 193 185 195 202 192 192 214 233 242 249 239 230 235 239 256 264 270 259 254 251 252 257 269 272 264 258
178 175 178 177 172 170 167 176 178 178 171 179 178 173 189 194 212 194 213 211 214 218 233 206 198 197 190 194 199 201 202 182 197 222 232 243 235 230 221 223 223 229 237 239 239 242 244 249 253 251 244 242 241 243
179 179 178 176 169 169 171 176 178 180 180 183 189 201 207 211 202 209 210 215 219 219 215 197 198 195 194 189 201 195 180 203 213 228 233 237 238 235 219 207 206 213 224 234 235 234 234 229 222 217 220 230 243 252
160 166 172 167 164 169 171 176 176 184 186 192 202 210 219 222 220 224 222 233 208 200 190 189 178 182 188 193 196 205 201 208 227 228 218 215 207 199 191 194 200 213 215 201 191 189 187 189 199 216 235 250 256 257
153 157 160 164 168 170 173 179 180 187 195 205 210 212 208 203 220 238 217 199 189 181 177 175 186 185 188 209 208 198 212 225 212 199 192 182 177 182 186 193 196 188 182 180 180 181 192 212 231 242 249 253 257 257
146 155 163 165 169 173 176 179 177 182 182 198 209 212 216 206 205 212 197 190 181 177 180 188 202 201 202 209 211 216 197 176 167 166 180 178 174 175 177 181 184 186 188 198 214 225 231 237 246 253 257 261 264 266
136 144 153 163 170 170 168 173 185 157 157 170 188 199 201 193 185 188 183 183 178 185 192 193 200 208 200 191 179 177 176 170 158 163 162 162 165 171 180 186 192 202 213 222 228 237 248 259 265 268 270 272 272 269
149 154 160 168 166 175 165 170 152 143 155 153 162 172 174 169 174 179 181 177 188 188 182 179 153 153 156 147 143 157 157 160 165 163 163 167 173 180 188 197 206 215 230 243 252 260 266 270 272 272 272 272 272 270
153 156 167 174 176 148 142 145 150 145 141 141 152 163 155 159 164 171 166 161 161 147 122 131 140 141 140 140 140 146 149 148 149 155 166 171 174 179 189 207 225 235 242 249 254 257 257 258 265 271 274 274 271 271
146 161 172 181 187 157 138 142 148 148 149 148 154 156 144 138 139 145 142 126 126 136 139 139 140 142 144 145 150 155 162 157 159 162 165 163 169 183 207 223 238 251 257 265 277 282 281 278 274 271 271 275 276 274
137 151 161 172 165 140 139 149 149 146 141 144 142 138 137 134 133 136 140 148 143 141 141 146 146 147 152 151 153 156 157 161 166 165 168 175 189 202 217 229 236 259 287 297 298 299 301 301 298 286 268 264 266 266
142 164 153 153 134 141 147 151 151 145 146 148 146 139 144 147 148 148 147 150 153 147 149 153 155 156 158 157 157 161 161 162 173 183 188 188 190 198 198 192 220 251 282 300 312 317 314 316 317 321 311 273 252 263
148 137 129 128 139 152 149 150 155 151 149 154 151 148 148 149 152 152 156 159 158 159 160 161 160 157 155 155 163 173 180 186 190 193 195 201 197 186 193 203 229 259 282 310 333 345 350 338 328 322 317 315 281 259
161 145 131 152 151 158 156 157 159 156 158 157 157 155 156 151 146 166 169 166 163 163 163 160 160 163 171 180 184 189 191 193 201 205 210 223 231 226 227 230 247 272 281 287 308 335 350 356 354 4 356 333 303 274
143 136 146 156 163 166 163 166 168 167 166 166 169 159 153 153 155 172 171 171 169 166 167 169 172 177 182 185 190 193 197 202 215 230 242 251 257 259 261 264 264 264 274 287 303 314 319 324 327 301 292 293 296 287
178 166 165 164 169 172 171 169 172 172 175 177 167 169 170 176 167 169 172 172 172 173 174 177 181 183 185 189 195 202 208 221 237 249 255 258 262 264 267 271 276 280 283 286 294 306 316 325 324 310 305 303 299 298
150 148 152 153 160 163 165 166 165 169 177 171 174 175 172 172 165 170 171 172 175 176 180 181 183 188 193 199 208 220 234 243 247 250 255 258 259 261 263 265 268 270 273 275 278 283 290 298 304 312 318 315 309 307
144 147 149 153 156 158 161 165 162 160 162 167 175 182 176 164 164 168 171 175 180 184 183 186 191 197 204 213 226 236 243 249 253 256 257 257 259 262 266 265 264 265 265 267 269 271 274 279 287 295 300 302 304 307
146 150 154 154 147 145 149 152 152 155 163 167 154 164 169 167 166 170 175 179 179 181 189 202 210 213 221 232 243 252 258 260 259 259 261 263 265 260 262 270 268 265 264 264 265 267 270 278 286 292 295 298 299 301
147 154 157 156 151 150 150 152 154 157 153 155 153 154 164 170 176 175 176 180 188 197 207 213 218 228 239 247 255 259 259 261 265 265 268 272 273 273 271 268 265 265 265 265 267 270 274 279 285 289 292 293 294 295
144 151 161 158 153 152 152 152 150 151 158 160 166 170 173 177 177 183 191 201 208 205 204 211 223 235 241 245 250 255 260 263 267 272 275 276 273 271 269 267 265 265 267 268 270 273 277 281 283 286 288 289 291 291